Regional Weather Roundup
Issued by NWS

Home | Current Version | Previous Version | Text Only | Print | Product List | Glossary On
Versions: 1 2 3 4 5 6 7 8 9 10 11 12 13 14 15 16 17 18 19 20 21 22 23 24 25 26 27 28 29 30 31 32 33 34 35 36 37 38 39 40 41 42 43 44 45 46 47 48 49 50
000
ASUS44 KMEG 040110
RWRTN
TENNESSEE HOURLY STATE WEATHER ROUNDUP
NATIONAL WEATHER SERVICE MEMPHIS TN
800 PM CDT FRI JUL 03 2015

TNZ002-004-019-021-049-052-054-088>092-040200-
WEST TENNESSEE

CITY           SKY/WX    TMP DP  RH WIND       PRES   REMARKS
MEMPHIS INTL   CLOUDY    75  70  84 SW13G25   29.88S
NWS MEMPHIS      N/A     76 N/A N/A MISG        N/A
JACKSON        LGT RAIN  74  71  91 S3        29.90S
DYERSBURG        N/A    N/A N/A N/A MISG        N/A
PARIS          CLOUDY    72  68  88 S6        29.90F
LEXINGTON      MOCLDY    72  70  94 S7        29.91F
$$

TNZ008-025-027-028-033-062-065-066-040200-
NORTH MIDDLE TENNESSEE

CITY           SKY/WX    TMP DP  RH WIND       PRES   REMARKS
NASHVILLE      CLOUDY    74  68  81 SW3       29.92R
CLARKSVILLE    CLOUDY    74  67  78 SW5       29.89R
SMYRNA         CLOUDY    74  68  81 VRB7      29.93R
COOKEVILLE     CLEAR     73  68  83 SW6       29.93S
CROSSVILLE     MOCLDY    71  63  75 W6        29.97R
$$

TNZ061-075-076-078-094-096-097-040200-
SOUTH MIDDLE TENNESSEE

CITY           SKY/WX    TMP DP  RH WIND       PRES   REMARKS
FAYETTEVILLE   PTCLDY    70  66  88 CALM      29.97R
TULLAHOMA      MOCLDY    70  66  88 S3        29.98R
WINCHESTER     MOCLDY    72  68  88 CALM      29.98R
MCMINNVILLE    MOCLDY    73  70  88 SW5       29.95S
COLUMBIA       CLOUDY    73  70  88 SW5       29.93R
SHELBYVILLE    PTCLDY    73  70  88 SW5         N/A
$$

TNZ017-018-042-046-047-040200-
NORTHEAST TENNESSEE

CITY           SKY/WX    TMP DP  RH WIND       PRES   REMARKS
TRI CITIES     CLOUDY    71  68  90 SW9       29.93S
ELIZABETHTON   CLOUDY    70  66  88 W5        29.94S
$$

TNZ012-013-036-069-073-074-040200-
CENTRAL EAST TENNESSEE

CITY           SKY/WX    TMP DP  RH WIND       PRES   REMARKS
KNOXVILLE      CLOUDY    74  69  85 SW10      29.92S
OAK RIDGE      PTCLDY    74  68  81 SW3       29.94R
GATLINBURG     CLEAR     73  64  73 SW6       29.93S
MORRISTOWN     CLEAR     72  68  88 SW13      29.94R
$$

TNZ083-085-099-040200-
SOUTHEAST TENNESSEE

CITY           SKY/WX    TMP DP  RH WIND       PRES   REMARKS
CHATTANOOGA    CLOUDY    75  65  70 S6        29.96R
$$

SKY/WX REPORTED AS FAIR MEANS FEW OR NO CLOUDS BELOW
12 THOUSAND FEET.




USA.gov is the U.S. government's official web portal to all federal, state and local government web resources and services.